Theta_e
325 328 327 326 327 328 327 327 328 330 330 331 330 330 328 327 326 325 325 325 324 323 324 324 325 325 325 324 323 323 323 322 322 322 323 323 323 323 323 323 323 323 323 323 325 327 329 330 332 333 331 329 328 325 325 325 324 323 322 322 322 323 323 323 324 323 322 321 321 322 323 328 331 331 328 328 327 327 335 335 330 332 334 335 333
322 324 326 325 326 328 328 327 327 329 330 331 331 331 330 329 327 326 324 323 323 322 322 323 324 324 323 323 322 322 322 321 321 322 323 324 324 323 324 324 324 323 324 323 327 330 329 330 332 331 330 329 329 328 327 327 326 326 324 325 324 324 324 324 324 325 324 323 321 322 325 330 333 334 332 329 326 322 329 335 332 331 332 333 335
319 321 324 324 325 328 329 328 328 329 329 331 331 331 331 330 329 327 324 323 323 322 322 322 322 322 322 321 321 322 322 322 322 323 323 323 324 324 324 324 324 324 326 327 329 331 331 331 331 331 331 330 330 329 328 326 326 326 326 326 326 326 325 325 325 325 325 325 323 322 324 330 333 333 334 334 332 327 325 331 334 333 332 331 332
317 320 321 322 323 326 328 328 328 329 330 330 331 331 331 330 329 327 325 324 324 324 323 322 322 322 322 322 322 323 325 325 325 326 324 324 324 324 324 324 324 324 328 331 331 331 331 331 330 331 331 331 331 329 327 326 325 325 326 326 327 327 326 326 326 326 326 326 325 324 323 329 332 331 334 336 336 334 328 326 327 329 329 328 328
316 318 319 319 320 322 324 325 327 328 329 331 331 331 331 330 329 328 326 325 325 325 324 323 323 323 323 323 324 327 329 329 329 329 327 326 325 325 325 325 325 326 328 331 331 329 330 331 331 331 332 332 331 329 327 325 324 323 323 324 325 325 325 326 326 326 326 326 327 326 324 327 330 330 332 334 335 335 333 328 324 323 323 322 322
316 316 317 317 316 317 318 320 322 323 326 329 331 331 330 330 330 329 328 326 325 324 324 324 324 324 323 325 328 330 330 331 331 329 327 327 327 327 326 326 327 329 330 330 328 326 329 331 331 332 332 333 332 328 326 325 323 322 321 321 322 323 323 323 323 324 325 326 326 326 326 325 327 331 331 332 333 334 335 333 330 327 324 322 319
318 316 315 314 314 314 315 316 317 318 321 325 328 329 329 329 329 329 329 327 325 325 325 324 324 325 324 327 330 330 331 332 332 329 327 327 329 329 328 328 329 330 329 327 326 324 327 331 331 330 329 331 332 329 327 325 321 319 317 316 316 317 318 319 319 320 323 326 327 326 326 325 326 330 330 332 334 333 334 334 334 332 328 326 323
320 317 315 313 313 314 314 314 315 316 318 320 322 325 326 325 324 325 327 327 326 326 326 326 327 328 327 329 330 331 332 333 333 330 328 328 329 329 328 328 328 328 326 325 324 322 324 328 329 327 325 328 330 328 325 321 317 314 313 312 312 312 313 313 314 314 317 322 326 327 327 326 324 327 328 330 333 332 332 332 333 334 332 330 327
321 319 316 314 314 314 314 314 315 315 315 317 318 320 320 321 321 322 325 326 326 326 327 329 330 331 331 330 330 331 332 332 331 329 328 327 327 328 328 326 324 324 324 323 320 317 318 321 322 321 319 320 322 321 318 314 312 312 311 311 310 310 310 310 311 310 312 314 320 323 326 327 324 328 329 326 329 330 330 330 331 332 332 332 329
321 319 317 315 314 314 314 314 314 314 314 315 316 317 318 319 319 322 324 326 326 326 327 331 330 331 332 331 330 332 332 330 329 328 327 326 324 324 325 323 319 318 318 317 315 313 313 314 315 315 314 314 314 313 312 311 309 308 308 307 307 307 307 308 308 309 310 310 313 316 319 322 323 328 329 324 324 327 329 329 330 330 330 330 329
321 319 318 316 315 314 314 314 313 313 314 314 316 317 318 318 318 321 324 325 327 327 328 330 330 331 332 330 330 332 331 329 328 327 325 324 320 318 318 317 314 313 313 312 312 312 312 312 312 312 312 312 311 310 308 307 306 305 305 305 305 305 305 305 305 306 308 309 310 311 312 314 320 325 323 321 322 322 325 326 328 329 329 328 327
322 320 319 317 316 315 314 314 313 313 314 314 316 317 318 316 316 321 324 325 327 330 329 330 331 331 332 329 330 331 329 327 327 326 323 319 316 314 313 312 312 312 312 311 311 310 310 309 309 309 308 308 307 306 305 305 304 304 304 304 304 304 304 304 304 304 304 305 306 308 308 309 316 319 316 316 318 318 319 322 325 328 329 328 327
322 321 319 319 317 316 314 314 313 314 314 314 316 317 317 316 318 322 326 326 326 330 329 329 330 330 330 329 330 329 325 323 323 321 318 314 312 311 311 310 310 310 309 308 307 306 306 306 305 305 305 305 304 304 304 304 304 304 304 304 304 304 304 304 304 304 304 304 304 304 305 305 309 312 313 314 314 315 316 318 322 324 326 326 326
322 322 321 319 318 316 315 314 314 314 315 315 315 315 315 317 320 322 325 325 323 324 324 325 327 326 326 326 328 326 323 322 318 314 312 310 310 309 308 308 307 307 306 305 305 305 304 304 304 304 304 304 304 304 304 304 304 304 305 305 305 304 305 305 304 304 304 304 304 304 304 303 305 306 310 312 312 313 313 316 320 320 322 324 326
320 321 321 320 319 317 316 315 314 314 315 315 314 312 312 313 317 318 320 321 320 319 319 321 322 321 321 321 324 321 320 321 314 310 310 308 307 306 306 305 305 305 305 305 304 304 304 304 304 304 304 304 304 304 305 305 306 306 306 306 306 306 306 305 305 305 304 304 304 304 303 303 304 303 306 308 310 311 311 314 316 317 319 321 325
318 319 321 321 319 318 317 316 315 314 315 314 313 312 311 311 312 313 314 316 316 314 315 315 315 316 317 316 318 318 316 315 311 308 308 305 305 305 305 305 305 305 304 304 304 304 304 304 304 304 304 305 305 306 306 307 307 307 307 307 307 307 307 307 306 306 305 304 304 303 303 303 303 303 303 305 307 308 308 311 312 313 314 316 319
317 317 319 320 320 319 317 317 316 315 315 314 312 311 311 311 311 312 312 312 313 312 312 312 312 312 313 313 314 314 312 310 308 307 305 305 305 305 305 305 305 304 304 304 304 304 304 304 304 304 305 306 307 307 307 307 307 307 307 307 307 307 307 307 307 307 306 305 304 304 303 303 303 303 303 303 304 305 305 307 309 310 311 312 313
317 316 316 318 319 319 318 317 316 315 315 314 312 311 311 312 312 312 312 312 312 312 312 310 311 311 311 312 311 311 309 309 307 306 305 305 305 305 305 305 304 304 304 304 304 304 304 304 305 305 306 307 307 306 306 307 307 307 307 307 307 307 307 307 307 307 307 306 305 304 303 303 303 303 303 303 303 303 303 304 306 308 309 310 310
317 316 315 317 318 319 319 317 317 316 315 315 313 311 312 312 313 313 313 313 313 312 312 310 310 310 310 310 310 309 309 308 306 305 305 305 305 305 305 305 304 304 304 303 303 303 304 304 305 306 306 306 306 306 306 306 306 306 306 307 307 307 307 307 307 307 306 306 305 304 304 303 303 303 303 303 303 302 303 303 304 305 306 307 308
317 316 315 315 316 318 318 318 317 316 316 315 314 313 311 312 313 313 313 313 313 312 311 310 310 310 310 309 309 309 308 306 305 305 305 305 305 305 305 304 304 304 303 303 303 303 304 305 306 306 306 306 306 306 306 305 306 306 306 306 306 306 306 306 306 306 306 306 305 305 304 304 303 303 303 303 302 302 302 302 302 303 303 304 305
317 317 316 315 315 316 317 317 317 317 316 315 315 314 312 312 312 313 313 313 312 312 311 310 310 310 309 309 309 308 306 305 305 305 305 305 305 304 304 304 304 303 303 303 303 304 304 305 306 305 305 305 305 305 305 305 305 305 305 305 305 306 306 306 306 306 306 305 305 305 304 304 303 303 303 303 303 302 302 302 302 302 302 302 303
316 317 316 316 315 315 315 316 316 316 317 316 315 314 313 312 312 312 313 313 312 312 311 311 310 309 309 309 308 307 305 305 305 305 306 305 305 305 304 304 304 303 303 303 303 304 304 305 305 305 305 305 305 305 305 305 305 305 305 305 305 305 305 305 305 305 305 305 305 304 304 303 303 303 303 303 303 303 302 302 302 302 302 302 302
316 316 316 316 316 315 315 315 315 316 316 316 316 315 314 313 313 312 312 313 313 312 311 311 310 309 309 308 308 306 305 305 305 305 305 305 305 304 304 304 304 303 304 304 304 304 305 305 305 305 305 305 305 305 305 305 305 305 305 305 305 305 305 305 305 305 305 305 304 304 303 303 302 302 302 303 302 302 302 302 302 302 302 302 302
316 316 316 316 316 316 316 315 315 315 315 315 316 316 315 314 313 313 312 312 313 312 311 311 310 310 309 308 307 305 305 305 305 305 305 305 304 304 304 304 304 304 304 304 304 304 305 305 305 304 304 304 304 305 305 305 305 305 305 305 305 305 305 305 305 305 305 305 305 304 303 303 302 302 302 302 302 302 301 301 301 301 302 302 302
315 315 316 316 316 316 316 316 315 315 315 315 315 315 315 315 314 313 313 312 312 312 312 311 311 310 309 308 307 305 304 305 305 305 305 305 305 304 304 304 304 304 304 304 304 304 305 305 304 304 304 304 305 305 305 305 305 305 305 305 305 304 304 304 304 305 305 305 305 305 304 303 303 302 302 302 302 301 301 301 301 301 302 302 302
315 315 315 315 315 316 316 316 316 315 315 315 315 315 315 315 315 314 313 313 313 312 312 312 311 310 309 309 308 305 304 305 305 305 306 306 306 305 305 305 304 304 304 303 304 304 304 304 304 304 304 304 304 304 304 304 304 304 304 304 304 304 304 304 304 304 304 304 304 304 304 303 302 302 301 301 301 301 301 301 301 301 302 303 303
315 315 315 315 315 315 316 316 316 316 315 315 315 315 314 314 315 315 314 313 313 313 312 312 311 311 310 309 308 306 305 305 305 305 306 306 306 305 305 305 304 304 303 303 303 304 304 304 304 304 304 304 304 304 304 304 304 304 304 304 304 304 304 304 303 304 304 304 304 304 303 302 301 300 300 300 300 300 300 300 300 301 302 303 303
315 315 315 315 315 315 315 316 316 316 316 315 315 315 314 314 314 315 315 314 314 313 313 312 312 311 311 310 308 306 305 305 305 305 306 306 307 306 305 305 304 304 304 303 303 304 304 304 304 303 304 304 304 303 304 304 304 304 304 304 303 303 303 303 303 303 303 304 304 303 303 302 301 300 299 299 299 299 299 299 300 300 301 302 303
315 315 315 315 315 315 315 315 315 316 316 316 315 315 315 314 314 314 315 315 314 314 313 313 312 311 311 310 309 307 305 305 305 305 305 306 307 307 306 305 305 304 304 303 304 304 304 303 303 303 303 303 303 304 304 304 304 304 304 304 303 303 303 303 303 303 303 303 303 303 303 302 301 299 299 298 298 298 299 299 299 299 300 301 302
316 316 315 315 315 315 315 315 315 315 315 316 316 316 315 315 314 314 314 314 315 314 314 313 312 312 311 311 310 308 306 305 305 305 305 305 306 307 306 306 305 304 304 304 303 303 303 303 303 303 303 303 303 304 304 304 304 304 304 304 303 303 303 303 302 302 303 303 303 303 303 302 301 299 298 298 298 298 299 300 299 300 301 302 303
315 315 315 315 315 315 315 314 315 315 315 316 316 316 316 315 315 314 314 314 314 314 314 314 313 312 312 311 310 309 308 306 305 305 305 305 305 306 306 306 306 305 304 304 304 303 303 303 303 303 303 303 303 304 304 304 304 303 303 303 303 303 303 302 302 302 302 302 302 303 303 302 301 299 298 298 298 298 298 298 299 299 301 303 303
314 315 315 314 315 315 315 315 314 315 315 315 315 315 316 316 315 315 314 314 314 314 314 314 313 313 312 312 310 310 309 307 305 305 304 304 305 305 306 306 306 305 305 304 304 303 303 303 303 303 303 303 303 304 303 303 303 303 303 303 302 303 302 302 302 302 302 302 302 302 302 302 301 300 299 298 298 297 297 297 298 298 300 302 302
314 314 314 314 314 314 314 315 315 315 315 315 315 315 315 316 315 316 315 314 314 314 314 314 314 313 313 312 311 310 309 308 306 305 304 304 304 304 305 305 305 305 304 304 303 303 303 303 303 303 303 303 303 303 303 303 302 302 302 302 302 302 302 302 302 302 302 302 302 302 302 302 301 300 299 298 297 297 297 297 297 297 298 299 299
313 313 313 313 314 313 314 314 314 315 314 314 315 314 315 315 315 316 315 315 314 314 314 314 314 314 313 312 311 310 310 308 307 305 304 304 303 303 304 304 305 305 304 303 303 303 303 303 303 303 303 303 303 303 303 302 302 302 302 302 302 302 302 302 302 302 302 302 302 302 302 302 301 300 299 298 298 297 297 297 297 297 297 297 297
313 313 313 313 313 313 313 314 314 314 314 314 314 314 315 314 315 315 315 315 315 315 314 314 314 314 313 312 311 311 310 309 308 306 304 303 303 303 303 303 304 304 303 303 303 303 303 303 302 302 303 303 303 303 303 302 302 302 301 301 301 301 302 302 302 302 301 301 301 302 302 302 301 300 300 299 298 297 297 297 296 296 296 296 296
313 313 313 313 312 313 313 313 313 314 314 314 314 314 314 314 314 315 315 315 315 315 315 314 314 314 314 313 312 311 310 309 308 307 305 304 303 303 303 303 303 303 303 303 303 303 302 302 302 302 302 302 302 302 302 302 302 301 301 301 301 301 301 301 301 301 301 301 301 301 301 301 300 299 299 298 298 297 297 297 297 296 296 296 296
314 313 313 313 313 313 313 313 313 313 314 314 314 314 314 314 314 314 315 315 315 315 315 315 314 314 314 313 313 311 310 309 308 307 306 304 303 302 302 302 302 302 302 302 302 302 302 302 302 302 302 302 302 302 302 301 301 301 301 300 300 300 301 301 301 301 301 300 300 300 300 300 299 298 298 297 297 296 297 296 296 296 296 296 296
313 313 313 312 313 313 313 313 313 313 313 313 313 313 313 314 314 314 314 314 314 315 315 315 314 314 314 314 313 312 311 309 308 307 307 305 304 302 302 302 302 302 302 302 302 302 302 302 301 301 301 301 301 301 301 301 301 301 300 300 300 300 300 300 301 301 300 300 300 300 300 299 298 298 297 296 296 296 296 296 296 296 296 296 295
313 312 312 312 312 312 313 313 313 312 312 312 312 312 312 313 313 313 314 314 314 314 314 314 314 314 314 314 314 313 312 310 308 307 307 306 305 303 302 301 301 301 301 301 301 301 301 301 301 301 301 301 301 301 301 300 300 300 300 299 300 300 300 300 300 300 300 300 299 299 299 298 298 297 296 295 295 295 295 295 295 295 295 295 295
312 312 312 312 312 312 312 312 312 312 312 312 312 312 312 312 312 313 313 313 314 314 314 314 314 314 314 314 314 314 313 311 309 308 307 306 306 304 302 301 301 301 301 301 301 301 301 301 301 300 300 300 301 301 301 300 300 299 299 299 299 299 299 300 300 300 299 299 299 298 298 298 297 296 296 296 295 295 295 295 295 295 295 295 295
312 312 311 311 311 311 311 311 311 311 311 312 312 312 311 311 311 312 312 312 313 313 313 314 314 314 314 314 314 314 313 312 310 308 307 306 306 305 303 302 300 300 300 300 300 301 301 300 300 300 300 300 300 300 300 300 299 299 298 299 299 299 299 299 299 299 299 299 299 298 298 297 297 296 296 295 295 295 295 295 295 295 295 295 295
311 312 311 311 311 310 310 310 310 311 311 311 311 311 311 311 311 311 311 312 312 312 313 313 313 313 313 314 314 314 314 313 312 309 307 305 305 305 305 303 301 300 300 300 300 300 300 300 300 300 300 300 300 300 300 299 299 298 298 298 298 298 298 298 299 299 299 299 299 298 298 297 296 296 295 295 294 294 294 294 294 295 294 294 294
311 311 311 311 311 310 310 310 310 310 310 310 310 310 310 310 310 310 310 311 311 311 312 312 312 313 313 313 314 314 314 314 313 310 307 305 304 304 305 304 303 301 300 300 300 299 299 299 299 299 299 299 299 299 299 299 299 298 298 298 298 298 297 298 298 298 299 298 298 297 297 296 296 295 295 294 294 294 294 294 294 294 294 294 294
311 311 311 311 311 311 310 310 310 310 310 310 310 309 309 309 309 309 309 309 310 310 310 311 311 312 312 313 313 314 314 314 313 312 309 306 304 304 304 304 304 303 301 300 299 299 299 299 299 299 299 299 299 299 299 299 299 298 297 298 298 298 298 299 298 298 298 298 297 297 296 296 295 295 294 294 294 294 294 294 294 294 293 293 293
312 312 312 311 311 311 311 310 310 310 310 310 309 309 309 309 309 309 309 309 309 309 309 310 310 311 311 312 313 313 314 314 313 313 311 308 305 304 303 303 304 304 302 300 299 299 299 299 299 298 298 299 299 299 299 299 299 298 298 298 298 298 299 300 298 298 298 297 297 297 296 295 295 295 295 294 294 294 294 294 294 293 293 293 293
312 312 312 312 312 311 311 310 310 310 310 310 309 309 309 309 308 309 308 309 309 309 309 309 310 310 310 311 311 312 312 313 313 313 312 310 307 305 303 302 303 303 303 301 300 299 299 299 299 298 298 298 298 299 299 299 298 298 298 299 299 299 299 299 298 297 297 297 297 297 296 296 295 295 295 295 295 294 294 294 294 294 293 293 293
312 312 312 312 312 312 311 311 311 310 310 309 309 308 308 308 308 308 308 308 308 308 309 309 309 309 309 309 309 310 310 311 312 312 312 311 309 307 305 303 302 302 303 302 301 300 299 298 298 298 298 298 298 298 299 299 298 298 298 298 299 299 299 299 298 298 297 297 297 297 296 296 296 295 295 295 295 294 294 294 293 293 293 293 293
312 312 312 312 312 312 312 311 311 310 310 309 309 308 307 307 307 307 307 307 307 307 307 307 308 308 308 308 308 309 309 309 310 311 311 311 310 309 307 304 301 301 302 302 302 300 299 298 298 298 298 298 298 298 298 298 298 298 298 298 298 299 299 298 298 298 298 298 298 297 297 297 296 296 296 295 295 294 294 294 293 293 293 293 293
312 312 312 312 312 312 312 311 311 311 310 309 309 308 307 306 306 306 306 306 306 306 306 306 306 307 307 307 307 307 308 308 308 309 309 310 310 309 308 306 303 301 301 301 301 301 299 298 298 298 297 297 298 298 298 298 298 298 298 298 298 298 298 298 298 298 298 299 299 298 298 297 297 297 296 295 295 294 294 293 293 293 293 292 292
311 311 311 311 311 311 311 311 311 311 310 309 309 308 307 306 305 305 305 305 305 305 305 305 305 306 306 306 306 306 307 307 307 307 308 308 308 308 308 306 304 302 300 300 300 301 300 299 298 297 297 297 298 297 297 298 298 298 298 298 298 298 298 298 298 298 298 298 298 298 298 298 297 297 296 295 295 295 294 293 293 293 292 292 292
309 310 310 310 310 310 310 311 310 310 309 309 308 307 307 306 305 305 305 304 304 304 304 304 304 305 305 305 305 305 306 306 306 306 306 306 307 307 307 306 304 302 301 300 300 300 300 299 298 297 297 297 297 297 297 297 297 297 298 298 298 298 298 298 298 298 298 298 298 297 297 297 297 297 296 296 295 294 294 293 293 293 292 292 292
Wind_Speed
21 22 21 21 20 20 20 20 19 19 18 17 16 16 15 14 13 13 12 11 11 10 10 11 11 11 10 10 10 9 9 9 8 7 7 6 5 5 4 3 3 2 1 0 2 2 1 1 1 1 0 2 3 4 4 3 3 4 4 4 4 4 5 6 6 7 8 8 7 7 7 7 6 4 4 4 4 4 4 5 5 4 3 3 3
17 22 22 22 21 20 20 20 19 19 19 17 17 16 15 14 13 12 11 10 10 9 9 10 10 10 10 9 9 8 8 8 8 8 8 7 6 5 4 4 3 2 1 1 1 1 1 2 2 2 2 1 1 2 3 2 2 3 3 3 3 3 3 4 4 5 6 6 6 6 6 6 5 3 3 3 4 4 3 3 4 4 3 3 2
16 20 21 22 21 21 20 20 19 19 19 18 17 16 15 15 14 13 12 11 10 10 10 10 10 10 9 9 8 8 7 8 8 8 8 8 7 6 5 4 4 3 1 1 2 2 3 3 4 4 4 3 2 0 2 3 3 2 2 2 2 2 3 3 3 3 4 4 4 5 5 4 3 2 2 2 3 4 3 2 2 2 3 3 2
15 20 20 22 22 22 21 20 20 19 20 19 18 17 16 15 15 14 13 12 11 11 11 11 11 10 9 9 8 7 7 7 7 8 8 8 7 6 6 5 4 3 3 3 3 3 4 4 5 6 6 4 3 1 2 3 2 1 2 2 2 3 3 3 3 3 2 2 3 3 4 3 2 1 1 1 2 2 2 1 0 0 1 2 2
14 20 20 21 22 23 22 21 21 20 20 20 19 18 17 16 15 14 14 13 13 12 12 12 11 11 10 8 7 6 7 7 7 8 8 8 7 7 7 6 5 4 4 4 4 3 4 5 5 6 5 5 4 3 3 1 2 3 3 3 3 4 4 4 4 4 3 2 1 1 2 2 1 1 1 1 1 1 1 1 1 1 1 1 1
12 18 21 21 21 22 22 22 21 21 21 21 20 20 18 18 17 16 16 15 14 13 12 12 11 11 9 7 7 8 8 8 9 10 9 9 8 8 7 7 6 5 6 6 5 5 5 4 5 5 5 5 5 5 5 5 6 6 6 6 6 6 6 6 6 6 5 3 2 1 1 1 1 1 1 1 2 2 2 2 2 1 1 1 1
11 16 20 21 21 21 21 21 21 21 21 22 22 22 21 20 19 18 17 16 15 14 14 13 12 11 10 9 9 10 10 11 10 11 10 10 10 9 9 8 8 8 8 8 8 7 6 6 6 6 6 7 7 8 8 9 10 10 8 8 8 8 8 8 8 8 7 6 5 4 3 3 2 2 3 2 2 3 4 4 4 3 2 2 1
11 15 19 21 21 20 20 21 21 21 21 22 22 23 22 21 21 20 19 18 16 16 14 12 11 10 10 11 12 12 12 13 11 12 12 11 11 11 11 11 10 10 10 10 10 9 8 9 9 9 9 9 10 11 12 13 13 11 10 9 9 9 9 9 9 9 9 9 8 7 6 5 4 4 5 5 4 5 6 6 6 5 4 4 4
12 14 17 20 21 20 20 20 21 21 21 21 22 22 22 21 20 20 19 18 17 16 13 11 11 11 11 13 14 15 15 14 13 13 13 11 11 11 12 12 12 12 12 12 12 11 11 12 12 12 12 12 12 13 14 13 12 11 11 10 10 9 9 9 10 10 10 11 10 10 9 8 6 4 6 8 7 7 7 7 7 7 7 6 7
12 14 17 19 20 20 20 20 21 21 20 21 21 21 20 20 19 18 18 17 16 15 13 13 13 12 13 15 16 16 16 15 14 15 14 12 12 12 13 13 14 14 14 14 13 13 12 12 13 13 13 12 12 12 12 11 11 10 9 8 8 8 8 8 9 10 10 11 12 12 11 10 8 6 9 10 10 9 9 9 9 10 9 9 9
14 14 16 19 20 20 20 20 21 21 20 21 21 20 20 19 19 18 18 17 15 14 15 15 14 15 16 17 17 17 17 16 16 16 15 14 14 14 14 15 15 14 14 14 13 12 11 11 11 11 11 11 10 10 10 9 8 6 5 4 4 4 4 5 6 7 9 10 11 12 11 10 9 9 11 12 12 13 11 11 11 10 10 10 10
15 15 16 18 20 20 20 20 20 21 21 21 21 21 20 20 19 18 17 17 16 15 17 17 17 17 18 18 18 18 18 18 17 16 16 15 14 13 13 14 14 14 13 13 12 11 9 9 9 9 9 9 8 8 6 4 3 2 2 1 1 1 1 1 2 3 5 7 9 10 11 11 10 11 13 13 14 14 13 13 11 9 8 10 11
15 15 16 17 19 20 21 21 20 21 21 21 21 22 21 20 20 19 17 17 18 19 19 19 19 19 19 18 19 19 19 18 16 15 14 13 12 12 12 12 12 12 11 10 9 8 8 7 7 6 6 5 4 3 2 2 1 1 1 1 1 1 1 1 1 1 2 3 4 6 9 11 12 12 13 13 14 13 13 13 11 11 11 12 13
15 16 16 17 19 20 21 21 21 21 21 21 22 22 22 21 20 20 20 19 20 21 21 21 21 21 21 20 19 19 18 15 13 12 11 11 10 10 10 10 10 9 8 7 7 7 6 5 4 3 3 2 2 2 1 1 1 1 1 1 1 1 1 1 1 1 1 1 1 2 5 8 11 12 13 13 13 12 13 12 11 12 14 14 13
15 16 17 17 19 20 21 22 22 22 21 21 22 21 22 22 20 20 22 21 21 20 21 21 22 22 21 21 20 19 16 13 11 10 10 10 9 9 8 8 8 7 6 6 6 5 4 4 3 3 3 2 2 2 1 1 1 1 1 1 2 2 2 2 2 2 2 2 2 2 3 5 7 10 12 13 13 12 12 11 12 14 15 15 14
15 16 18 18 19 20 21 22 22 22 22 22 22 21 21 22 21 20 21 21 20 20 19 20 21 20 20 20 19 17 15 12 11 10 10 9 9 8 8 7 7 6 6 6 6 5 5 5 4 4 4 3 2 2 2 1 1 1 1 2 2 2 2 2 2 2 2 2 3 3 3 4 5 7 10 12 12 12 11 11 13 15 16 16 16
16 17 18 19 20 20 22 22 22 23 23 23 22 22 21 21 21 21 21 20 20 20 19 20 20 19 20 19 17 17 15 12 11 11 10 10 9 8 8 7 7 7 7 7 7 7 7 6 6 5 5 4 3 3 2 2 2 2 2 2 2 2 2 2 2 2 3 3 3 4 5 5 5 7 8 10 11 11 11 12 14 15 16 17 17
17 18 19 20 21 22 22 23 23 24 24 24 24 23 22 22 21 21 21 21 21 20 20 20 19 18 19 18 17 16 14 12 12 11 11 10 10 9 9 8 8 8 8 9 8 8 7 7 6 5 4 4 3 3 3 2 2 2 2 2 2 2 2 2 2 2 3 3 4 5 5 6 6 7 8 9 9 10 11 12 14 15 16 16 17
19 19 20 21 22 23 24 24 24 25 25 25 26 25 24 23 23 22 22 21 21 21 21 20 19 19 18 18 17 15 14 14 13 13 12 12 11 10 10 9 9 9 9 9 8 8 7 6 6 5 5 4 3 3 3 3 2 2 2 2 2 2 2 2 2 2 3 4 5 5 6 7 7 8 9 9 9 10 10 11 12 13 15 16 16
21 21 21 22 23 24 25 25 25 26 26 27 27 27 26 25 25 24 23 23 23 23 22 21 19 19 19 19 18 16 16 15 15 15 14 13 12 12 11 10 10 10 10 9 9 8 7 6 6 6 5 4 4 3 3 3 2 2 2 2 2 2 2 2 3 3 4 4 5 6 7 8 8 9 10 10 10 10 10 11 11 11 13 14 15
22 22 23 24 24 25 26 26 27 27 27 28 28 28 28 27 27 26 25 25 24 24 23 22 21 21 21 19 18 17 17 17 17 16 15 14 13 13 12 11 11 11 10 10 9 8 8 7 6 6 5 4 4 3 3 2 2 2 1 1 1 1 1 2 2 3 4 5 6 7 7 8 9 10 11 11 11 12 12 12 12 11 12 12 14
22 23 24 25 26 26 27 28 28 28 28 29 29 29 29 29 29 28 27 27 26 25 25 23 22 22 22 20 19 19 19 19 18 17 16 14 14 14 13 12 12 11 11 10 9 9 8 8 7 6 5 4 4 3 3 3 2 2 2 1 1 1 1 0 1 2 3 4 5 6 7 8 9 10 11 11 12 12 13 13 12 12 12 12 12
24 24 25 26 27 28 28 28 28 28 29 30 30 30 30 31 30 30 29 29 28 27 26 25 24 23 22 21 20 20 21 20 19 18 16 15 15 15 14 13 13 12 12 11 10 10 9 9 8 7 6 5 4 4 4 3 3 2 2 2 2 1 1 1 1 1 2 3 4 5 6 8 9 10 11 12 12 13 13 13 12 12 13 12 12
25 25 26 27 28 29 28 28 28 29 30 31 31 31 32 32 32 32 31 30 30 28 28 27 26 25 23 22 22 22 22 22 21 19 17 17 17 17 16 15 14 14 13 12 12 11 10 9 9 8 7 6 5 4 4 3 3 2 2 2 2 2 1 1 1 1 2 3 3 4 6 7 8 9 11 11 12 12 13 13 13 12 12 12 12
25 27 28 28 28 28 29 29 30 30 31 32 32 32 33 33 33 33 33 32 32 30 30 29 28 26 24 24 23 22 23 24 22 21 20 20 19 19 18 17 16 16 15 14 13 12 12 11 10 9 8 7 6 5 4 3 3 3 3 3 3 2 2 2 1 1 2 2 3 4 5 6 8 9 10 11 11 12 12 12 12 12 11 11 12
24 26 28 28 28 28 29 30 31 32 33 32 32 33 33 34 34 34 34 34 34 33 31 30 29 28 27 26 25 24 26 26 24 23 23 22 21 20 20 18 17 16 16 15 15 14 14 12 11 10 9 8 6 5 4 4 3 3 3 3 3 3 3 2 2 2 2 2 3 3 4 5 7 9 10 11 11 12 12 12 12 12 11 10 11
22 24 25 26 28 28 30 31 32 33 34 34 34 34 34 35 35 35 35 36 36 35 33 32 32 30 29 27 26 27 28 28 27 26 25 24 23 22 21 20 19 18 18 18 17 16 15 14 12 11 10 9 7 6 5 4 4 3 3 3 3 3 3 3 3 3 3 3 3 4 4 5 6 8 9 10 11 11 12 12 12 12 12 11 10
22 23 24 26 27 28 29 31 33 34 34 35 36 35 35 36 36 36 36 37 37 36 35 34 34 32 31 29 29 29 29 30 29 28 27 26 25 24 23 21 21 21 20 20 19 17 16 15 14 12 11 9 8 7 6 5 4 3 3 4 4 4 4 4 3 3 3 4 4 4 5 6 6 8 9 10 11 11 12 12 12 12 12 11 11
22 21 22 24 26 27 29 31 33 33 34 36 37 37 37 37 38 38 37 38 38 37 37 36 35 34 33 32 31 31 31 32 31 30 29 28 26 25 24 24 23 23 22 21 20 19 18 16 15 13 12 10 9 8 6 5 5 4 4 4 4 5 4 4 4 4 4 4 5 5 6 6 7 8 9 10 11 11 11 11 12 12 11 11 12
22 21 22 23 24 26 28 31 32 33 35 37 38 38 38 38 39 39 39 39 38 38 38 37 37 37 36 34 33 33 33 33 33 33 32 30 28 27 26 26 25 24 23 22 21 20 19 18 16 14 13 12 10 9 8 7 6 5 4 5 5 5 5 5 5 5 5 5 5 6 6 7 8 8 9 10 11 11 11 11 12 11 10 10 10
24 24 23 23 24 26 28 30 32 33 35 37 37 38 39 39 39 40 40 40 39 39 39 39 39 39 38 37 35 35 34 34 35 34 34 32 30 29 28 28 27 26 25 24 23 22 21 19 17 16 14 13 12 10 9 8 7 6 5 5 5 5 6 5 5 5 5 5 5 6 6 7 8 9 10 11 12 12 12 12 12 11 10 9 9
27 26 25 25 26 27 28 30 31 33 35 37 37 37 39 40 40 41 41 41 40 41 40 40 40 40 40 39 37 37 36 36 36 36 35 34 33 32 31 29 28 27 26 25 24 24 22 21 19 18 17 15 13 12 10 9 8 6 6 5 5 6 6 6 6 6 6 6 6 6 7 8 9 9 10 11 11 12 12 12 12 12 11 10 11
32 30 29 30 29 29 29 30 32 33 35 36 37 38 39 40 41 41 42 42 42 42 41 41 41 41 41 40 40 39 38 38 37 37 37 36 35 34 32 31 30 28 28 27 26 25 24 23 22 20 19 17 15 13 11 10 9 7 7 6 6 6 7 7 7 7 7 7 7 7 7 8 9 10 10 11 11 11 11 12 12 12 12 12 13
35 35 34 33 33 32 30 30 31 33 34 36 38 38 39 40 40 42 43 43 43 43 43 42 43 43 42 42 42 42 41 40 39 38 38 38 37 35 34 33 32 30 30 29 28 27 26 25 24 22 20 18 16 15 13 11 10 9 8 7 7 7 7 8 7 7 8 8 8 8 8 8 9 10 10 10 11 11 11 11 11 11 12 13 13
33 33 33 32 32 33 32 32 31 32 34 36 37 38 39 40 41 42 43 44 44 44 44 44 44 44 44 43 44 44 43 42 41 40 39 40 39 38 36 35 34 32 31 30 30 29 28 27 25 23 21 20 18 16 15 13 12 11 10 9 8 8 8 8 8 8 8 8 8 8 9 9 9 9 10 10 10 11 11 11 11 11 11 12 12
27 27 27 26 27 29 30 31 32 32 34 35 36 37 38 40 42 42 43 43 44 45 46 46 45 45 45 45 45 45 45 44 42 41 40 41 41 40 39 38 36 34 33 32 32 31 30 28 26 24 23 22 20 18 17 15 14 12 11 11 10 9 9 8 8 8 8 9 9 9 9 9 10 9 9 10 10 11 11 11 11 11 12 12 12
22 22 22 21 22 24 25 28 30 31 33 34 36 37 39 41 42 43 44 44 45 45 46 47 47 47 47 47 47 46 46 45 44 42 42 42 41 41 41 39 37 36 36 35 34 33 31 30 28 26 25 24 22 20 18 17 16 14 13 12 11 10 10 9 9 9 9 9 9 9 10 10 10 9 9 9 10 10 11 11 12 13 13 13 13
18 18 18 18 18 20 22 24 27 29 31 34 36 38 39 41 43 45 46 46 46 46 47 48 48 49 49 48 48 47 47 46 45 44 44 43 42 42 41 41 40 39 38 37 36 35 33 31 30 29 28 26 24 22 20 19 17 16 15 13 12 11 10 10 10 10 10 10 10 10 10 10 10 10 9 9 9 10 11 11 12 13 13 13 13
15 15 15 16 16 17 19 21 24 27 28 31 34 36 39 41 43 45 46 47 48 48 48 49 50 51 51 50 48 48 48 48 47 46 45 44 43 42 42 42 42 41 40 39 38 37 35 33 32 31 30 28 26 24 23 21 19 17 16 15 14 13 12 11 10 11 10 10 10 10 11 11 11 11 10 10 10 11 11 11 12 12 12 13 13
11 12 13 14 14 15 18 20 21 23 25 28 31 34 37 40 43 44 46 47 49 50 50 51 52 52 51 51 50 49 49 49 48 48 47 46 44 44 43 43 43 43 42 41 40 38 36 36 34 33 32 30 29 27 25 23 21 19 17 16 16 14 13 12 12 11 11 11 11 11 12 12 12 12 12 12 12 12 12 12 12 12 13 13 13
8 9 10 12 13 14 17 18 20 21 23 26 29 32 35 38 40 42 43 46 48 50 51 52 53 53 52 51 51 50 50 50 50 49 49 48 47 45 45 44 45 45 44 43 41 39 38 37 36 34 33 32 31 30 28 25 22 21 20 18 17 15 14 13 13 12 12 12 12 13 13 13 13 13 13 13 13 13 13 13 13 14 14 14 14
10 8 8 9 11 13 15 18 19 21 22 24 27 29 32 34 36 37 39 42 44 47 49 51 52 53 53 52 52 52 51 51 51 51 51 50 49 48 46 45 45 45 44 43 42 41 39 38 37 36 36 35 33 32 29 27 24 23 22 19 17 16 15 14 14 14 14 14 14 14 14 14 13 13 12 12 12 12 13 13 13 14 14 14 15
15 12 10 9 10 11 13 15 17 19 21 23 24 25 28 30 32 34 36 38 40 43 45 48 50 51 52 52 53 53 53 52 52 52 52 52 51 50 48 46 46 45 45 44 44 42 41 40 39 39 38 37 35 33 31 28 27 25 22 18 17 15 14 17 18 16 16 16 15 15 15 14 14 13 13 12 13 13 13 13 13 14 14 15 15
21 19 16 14 12 11 11 12 15 17 18 20 21 22 25 27 29 31 33 35 37 40 42 44 47 50 51 52 53 54 54 53 53 53 53 53 52 51 49 48 46 46 46 46 46 45 44 43 42 41 40 39 37 35 32 31 30 28 23 18 15 13 12 15 19 18 17 16 16 16 16 16 15 15 14 15 15 15 15 14 13 14 14 15 16
27 25 22 20 16 13 11 11 13 14 15 17 18 20 23 24 26 29 31 34 36 39 41 43 45 48 50 51 53 54 54 54 53 53 53 53 53 52 51 49 48 47 47 47 47 47 46 45 44 43 42 40 39 36 34 34 33 30 28 22 16 13 13 15 15 16 17 17 17 18 18 18 18 17 17 18 19 19 18 16 15 15 15 16 16
32 29 27 24 20 17 13 11 11 12 13 15 16 19 21 23 26 28 30 33 35 37 39 40 42 43 45 47 49 50 51 52 53 53 53 53 54 53 52 51 49 48 48 48 48 48 47 46 45 44 43 42 40 39 37 36 34 33 33 30 23 17 16 16 14 12 16 18 18 18 20 20 20 19 19 19 20 20 19 18 17 16 16 16 16
31 29 28 27 24 21 17 14 12 11 12 13 15 17 20 23 25 27 29 31 33 34 35 35 37 38 39 41 43 44 46 48 51 53 53 54 54 54 53 52 51 50 49 49 49 49 48 47 45 44 44 43 43 42 40 37 36 36 35 34 32 26 22 19 17 14 13 17 19 20 21 22 22 21 20 20 20 20 20 18 17 16 16 16 16
28 27 27 26 25 24 22 19 16 13 11 11 13 14 17 21 23 25 28 30 31 33 34 34 35 36 37 37 38 40 42 44 47 50 52 53 54 54 54 54 53 52 51 50 50 49 48 47 46 46 45 45 45 43 42 40 39 38 36 35 34 32 29 26 23 19 14 13 18 20 21 22 22 22 21 21 21 20 20 19 17 15 15 16 17
26 26 26 24 23 23 22 21 20 18 15 12 12 12 14 17 19 22 24 27 29 30 32 34 34 36 36 36 37 37 38 40 42 46 49 51 52 53 54 55 54 54 53 52 51 49 48 48 47 47 47 47 46 44 44 43 42 40 38 36 35 33 32 30 27 25 20 16 15 18 20 20 21 22 21 21 21 21 20 19 17 16 16 17 18
25 24 24 23 23 22 21 21 20 20 18 15 13 11 12 13 16 18 21 23 26 28 30 31 33 34 35 36 36 36 36 37 38 40 43 46 49 52 54 56 55 55 54 52 52 50 49 49 48 47 47 47 47 46 46 45 43 42 40 38 36 35 34 32 30 27 26 22 19 19 20 19 20 20 20 21 22 21 20 19 18 17 17 18 19
25 24 24 24 24 23 22 21 20 20 19 17 14 12 11 10 12 15 17 20 23 25 27 29 31 33 33 34 35 35 35 35 36 37 38 41 45 49 53 55 56 56 55 53 52 51 50 49 48 47 48 48 48 47 47 46 44 43 42 41 39 38 35 34 32 28 27 26 24 23 22 19 19 20 19 20 21 21 20 19 19 19 18 19 20
Wind_Direction
189 195 199 199 201 204 201 195 190 186 186 185 185 184 185 186 188 189 189 190 186 184 181 179 179 179 179 179 181 182 185 185 188 192 195 194 194 195 190 192 195 200 200 112 55 63 88 121 124 129 336 47 56 53 50 49 56 65 73 70 66 59 54 53 55 57 57 60 62 69 71 74 75 64 68 55 30 33 58 75 89 108 122 120 123
197 197 197 200 200 205 205 200 197 191 191 190 190 188 187 187 188 192 195 197 194 195 192 190 189 189 190 191 194 197 201 200 201 204 206 205 209 213 215 216 220 233 246 269 116 148 186 184 189 205 234 250 348 57 69 63 63 65 67 60 54 46 41 37 43 53 59 63 65 75 80 84 87 75 64 52 33 32 48 71 80 84 92 103 115
201 201 198 201 200 204 207 205 202 197 196 195 195 193 192 191 191 194 196 198 197 200 201 202 200 200 201 199 199 202 207 208 209 208 209 211 215 222 225 227 227 226 215 214 183 186 197 201 214 229 248 250 251 116 104 86 72 63 47 19 9 7 8 9 16 32 49 64 71 81 89 91 87 77 71 66 47 39 45 65 87 81 84 90 100
199 203 202 202 202 204 208 209 206 203 201 200 200 198 197 196 197 197 197 199 200 203 204 206 205 206 208 209 209 209 215 216 217 216 215 214 217 224 226 225 223 216 194 188 186 190 207 219 230 239 251 247 236 203 147 116 75 34 2 336 325 326 328 331 338 351 12 44 65 78 95 94 81 67 57 47 40 30 29 22 13 43 71 82 90
197 202 206 205 204 206 209 211 209 207 205 204 204 203 201 200 201 200 202 203 205 207 208 210 212 214 216 221 215 212 220 215 217 221 221 217 216 221 221 218 215 214 194 189 199 213 227 235 240 245 252 247 240 226 194 200 287 298 302 297 288 291 298 303 306 311 315 329 28 62 100 110 126 306 5 356 324 324 327 338 350 354 25 23 37
197 200 206 207 206 208 210 212 211 210 208 207 206 205 205 204 205 205 206 206 208 211 213 216 219 222 224 221 208 207 215 210 214 224 227 222 219 218 217 215 210 206 200 206 225 239 239 240 245 252 258 254 248 242 246 271 285 285 283 278 272 272 275 281 286 289 287 280 262 234 220 177 169 260 275 289 298 289 274 265 279 298 335 1 24
200 201 206 208 207 208 210 212 213 213 211 210 209 208 208 208 210 211 211 210 211 213 215 220 223 226 222 213 209 210 212 209 213 226 231 224 221 220 216 213 209 211 218 228 241 245 237 234 240 249 256 253 249 251 262 277 284 281 277 271 265 263 262 264 268 272 272 267 257 244 241 233 202 229 242 242 270 267 265 258 257 255 250 267 260
204 203 206 209 209 210 209 211 214 215 215 215 214 213 213 213 215 216 216 216 215 215 215 216 220 223 216 211 213 213 214 214 215 225 231 227 225 226 222 219 221 226 233 240 248 248 238 233 239 245 249 247 247 254 265 276 281 279 274 269 262 258 256 256 256 258 258 257 255 250 244 244 239 235 236 233 246 258 266 269 263 251 246 260 261
209 203 206 209 211 212 209 211 214 216 217 218 218 218 218 217 218 218 218 218 219 219 211 205 210 212 208 213 216 215 219 222 224 229 234 233 232 235 235 235 238 241 246 250 256 255 246 240 245 249 251 250 252 259 268 274 275 273 271 267 262 257 253 251 250 248 248 248 250 251 248 246 244 242 242 237 242 255 262 266 266 262 256 259 262
212 204 205 209 213 213 211 212 213 216 217 217 217 217 217 215 214 213 213 214 217 217 205 200 208 210 209 218 222 220 223 226 230 235 238 240 242 245 245 248 249 249 251 256 259 258 253 249 250 254 256 258 260 265 269 271 270 269 268 265 262 259 254 250 247 243 241 240 243 246 247 248 241 238 246 242 241 247 252 254 260 268 267 261 258
216 209 206 208 213 215 214 214 213 214 215 215 213 213 213 212 210 206 207 207 208 209 203 203 209 212 216 225 229 227 230 232 235 239 242 246 249 248 245 247 251 251 252 255 256 256 254 252 255 258 260 262 264 266 266 266 266 267 265 265 262 258 253 247 242 240 238 236 237 240 242 243 235 240 249 246 245 247 249 251 255 264 266 262 259
221 217 212 209 212 215 216 216 214 215 215 215 212 212 213 213 210 204 204 201 199 203 205 206 209 215 222 228 232 234 238 240 240 242 247 250 247 244 243 244 248 250 251 253 256 257 257 257 259 261 261 260 259 258 257 256 253 253 259 263 265 261 244 232 229 227 230 232 234 236 237 234 229 243 254 251 251 252 251 251 250 251 255 262 267
227 224 221 216 214 215 217 219 217 216 216 215 213 213 214 212 208 203 203 201 199 205 210 211 213 220 225 230 233 238 244 244 241 242 247 248 244 243 243 243 245 248 250 255 258 263 265 264 262 256 250 246 241 236 227 217 216 227 247 269 279 284 278 264 245 228 222 225 229 232 234 234 232 242 252 254 255 254 253 251 246 245 252 262 271
230 230 227 223 219 218 219 221 220 220 219 217 215 215 214 213 208 205 207 208 207 210 214 216 220 225 229 231 235 244 248 244 242 242 243 242 241 243 243 242 245 247 250 255 260 263 263 256 246 231 211 190 183 183 191 211 240 265 278 289 293 295 295 293 292 287 277 265 249 238 234 238 239 241 245 253 256 255 255 252 249 252 256 261 268
228 230 230 228 225 223 222 223 223 224 223 220 218 216 216 216 214 211 212 216 218 220 221 223 227 230 233 235 236 243 245 238 242 241 239 240 236 239 241 242 243 241 242 244 245 241 231 215 199 183 173 169 176 188 199 228 251 281 297 302 303 304 305 308 311 312 313 320 317 300 261 250 247 244 245 252 258 260 258 253 254 258 259 260 262
227 228 229 229 227 226 225 226 226 226 226 225 222 219 218 218 218 217 218 221 226 230 231 232 236 237 237 239 236 239 244 241 244 239 235 238 232 234 236 236 233 227 224 219 212 203 194 185 182 182 185 191 196 204 213 231 256 276 290 292 296 295 299 302 305 308 311 320 320 313 295 279 268 256 253 256 262 266 266 262 259 260 261 261 261
230 229 227 228 227 227 227 227 227 227 227 227 226 223 221 221 222 223 223 225 229 235 237 239 242 243 241 240 237 238 245 245 242 236 233 233 229 229 228 225 219 211 204 196 191 187 185 184 187 190 192 197 198 206 219 233 253 266 277 281 285 283 283 283 284 292 296 302 307 302 296 291 286 277 269 268 272 277 281 278 270 267 265 264 263
236 232 228 228 227 227 228 228 228 227 227 227 226 226 224 224 225 228 228 229 232 236 239 240 241 244 243 240 239 240 242 239 235 232 228 227 225 224 221 217 208 200 192 188 187 186 186 187 189 191 191 192 195 204 218 227 236 241 247 248 254 259 258 263 264 270 276 286 289 288 289 290 288 285 284 283 285 286 287 284 278 275 272 270 268
240 236 232 229 227 228 228 229 229 227 227 227 227 226 225 225 226 228 230 231 234 237 240 242 241 243 242 239 239 238 236 233 229 225 222 222 220 218 216 210 204 196 191 190 190 188 188 189 188 188 189 193 202 213 219 222 220 216 215 212 214 217 221 226 232 245 256 270 274 276 280 283 283 283 285 287 289 288 285 281 279 277 276 275 273
243 239 235 233 230 228 228 229 230 229 229 229 228 228 227 226 226 227 229 231 234 237 239 241 241 241 241 238 237 235 232 228 223 220 218 218 216 215 212 207 203 197 195 194 193 192 191 190 190 190 194 201 211 222 228 226 220 214 204 198 197 196 199 209 214 226 240 251 260 267 272 274 277 278 280 283 285 286 284 282 278 277 277 277 277
248 245 240 237 233 232 230 230 230 231 231 230 230 229 229 228 227 227 228 230 232 235 238 239 239 239 238 236 234 231 227 223 219 218 217 216 215 213 209 206 203 199 199 199 197 197 195 194 195 196 202 211 220 230 236 239 237 235 233 228 216 203 200 204 213 221 231 239 246 255 263 268 272 273 274 276 279 280 281 282 281 278 277 277 277
253 251 247 243 238 235 232 232 232 232 232 232 232 231 230 230 229 229 228 230 231 234 236 236 237 236 235 234 232 228 224 221 218 218 218 215 214 212 209 207 204 204 204 204 202 201 200 200 200 205 212 220 229 237 242 249 256 264 274 291 313 335 335 313 260 244 241 243 245 249 255 262 267 270 271 272 274 275 277 280 281 281 279 277 275
256 253 253 249 244 240 237 235 235 234 233 233 233 232 231 231 231 231 230 231 231 233 234 234 234 234 233 231 229 227 223 220 218 218 217 215 214 213 210 208 206 207 208 208 207 207 206 206 206 211 219 226 233 238 246 254 266 278 290 307 319 339 354 356 342 308 285 272 264 260 259 262 265 269 270 271 274 275 278 280 281 281 280 278 276
261 259 255 252 248 246 244 241 239 236 235 234 234 232 232 232 232 233 232 231 232 233 233 233 233 234 232 230 228 226 222 219 218 217 216 215 215 213 211 209 207 208 209 210 211 211 211 212 214 218 224 230 236 241 248 259 270 283 296 310 320 330 343 352 348 325 307 296 288 279 272 270 270 272 272 272 274 276 279 280 281 280 279 278 276
264 259 255 253 252 252 250 247 243 239 237 236 235 234 233 233 232 233 233 232 233 233 233 233 233 233 231 229 228 225 221 220 218 217 216 216 215 214 213 210 209 209 210 211 212 212 214 215 218 221 227 231 236 242 249 260 271 285 298 308 316 322 328 339 338 322 307 297 291 282 276 272 271 273 274 275 276 278 280 280 280 279 279 279 277
262 258 255 253 252 251 250 248 246 243 240 239 238 236 235 234 233 234 234 233 234 234 234 234 233 233 231 230 228 223 221 221 219 218 218 218 217 216 215 213 211 211 211 211 211 212 214 216 219 222 226 230 233 237 244 254 268 285 299 311 316 321 327 331 330 320 309 302 298 289 280 272 269 270 273 276 278 279 281 281 281 281 281 279 278
262 258 255 252 250 247 246 246 246 245 243 241 240 239 237 236 235 235 235 235 236 236 235 234 234 233 232 230 228 224 222 222 221 220 220 220 219 217 216 214 212 211 211 211 211 213 215 216 220 223 225 227 228 233 239 249 266 285 300 312 319 323 327 327 326 320 313 312 310 305 298 285 277 274 275 276 278 279 278 279 279 279 280 279 277
256 253 250 247 245 243 243 244 244 245 245 243 242 241 239 238 237 236 236 237 238 237 237 236 235 234 232 231 228 226 224 223 223 223 222 222 220 218 216 214 212 212 212 212 212 214 216 217 220 222 223 225 227 232 238 251 267 285 302 315 320 324 325 323 321 318 316 316 314 311 304 295 286 281 278 277 277 277 275 274 273 274 277 276 274
249 249 249 246 243 241 241 241 241 242 243 243 243 242 241 240 239 238 237 237 238 238 238 237 236 235 233 232 230 228 226 225 225 224 224 224 222 220 217 216 214 214 213 213 213 214 215 218 219 221 223 224 227 234 241 253 268 284 301 313 319 321 321 321 319 319 319 315 314 310 304 297 289 283 278 275 273 270 268 267 267 269 271 270 271
253 253 253 251 247 243 240 240 240 240 241 242 243 242 242 241 241 240 238 238 239 239 239 238 237 236 234 233 231 230 228 227 226 226 226 225 224 222 220 219 217 216 215 215 214 215 216 217 219 221 223 225 229 236 243 252 263 277 293 303 310 314 314 315 315 316 315 313 312 308 304 298 291 284 276 271 266 263 261 262 262 262 260 264 267
264 262 262 261 255 250 245 242 241 240 241 242 242 242 243 243 243 242 241 240 240 240 240 239 237 236 235 234 233 232 230 229 228 227 227 226 225 223 222 221 220 218 217 217 216 216 217 218 219 221 223 227 231 236 242 250 258 269 281 291 300 305 306 308 309 310 309 307 306 303 300 296 291 285 277 271 267 266 264 262 260 255 252 255 253
275 273 274 273 267 261 255 248 244 242 241 242 242 242 242 243 243 243 242 242 241 241 240 240 238 237 236 234 233 233 232 231 230 229 228 227 226 224 224 223 222 221 220 219 218 218 218 219 220 221 223 227 231 237 241 248 256 264 275 285 295 299 301 303 304 304 303 301 299 297 294 291 288 284 279 274 269 267 264 262 260 255 247 245 246
281 279 276 274 273 269 263 257 251 245 243 242 243 242 242 242 242 243 243 243 242 241 241 241 240 239 237 235 233 233 232 232 231 230 230 228 227 226 225 225 224 223 222 221 219 219 219 220 221 222 224 227 232 236 239 245 253 261 270 278 286 291 295 298 300 300 299 297 295 292 289 286 284 282 281 278 272 265 261 260 260 257 251 249 254
283 279 275 273 273 271 267 263 256 250 245 242 243 243 242 242 241 242 242 242 242 242 242 242 241 240 239 236 234 233 233 232 232 231 230 229 228 227 226 226 226 225 223 223 221 221 221 221 222 224 226 228 232 235 237 242 248 255 262 269 276 282 288 293 296 298 295 293 290 287 285 282 280 278 277 276 274 268 263 260 257 256 255 256 261
284 279 276 274 271 268 265 262 258 253 247 243 242 242 243 243 242 242 242 242 242 243 242 242 242 241 241 238 236 234 233 233 232 231 231 231 230 228 227 227 227 226 225 225 224 223 223 223 224 225 226 228 231 233 235 238 243 249 254 261 267 273 280 286 290 291 289 288 286 284 282 279 276 275 274 272 271 270 267 266 263 259 257 258 260
285 280 277 273 268 265 261 259 257 254 251 247 244 243 243 244 243 243 242 242 242 243 243 243 242 242 242 240 238 236 234 233 233 232 232 232 231 229 228 228 228 227 227 227 226 225 224 224 225 225 227 229 231 232 233 235 239 243 248 253 258 264 272 279 285 287 287 286 285 283 281 277 274 271 270 270 269 270 270 271 270 266 262 261 260
287 281 278 273 268 264 259 256 254 253 252 251 248 244 243 244 244 244 243 243 242 243 243 243 243 242 242 241 240 237 235 235 234 233 232 232 231 231 230 230 229 228 228 228 227 227 225 225 225 225 226 228 230 230 231 233 235 239 242 246 252 258 266 274 282 285 285 284 282 281 279 274 271 267 265 265 266 268 270 270 270 269 268 266 264
295 286 282 276 269 264 258 254 253 252 252 252 251 248 246 244 244 244 244 243 243 243 243 243 243 243 242 241 241 239 237 236 235 234 233 233 232 232 231 230 230 229 229 228 228 228 226 226 225 225 226 226 227 228 229 231 233 236 237 240 246 252 259 267 275 277 277 278 278 278 276 271 266 262 259 259 261 264 265 268 268 269 269 268 266
301 293 286 277 269 263 258 255 254 254 254 253 253 251 249 246 244 244 244 244 243 242 242 243 243 243 243 242 242 241 239 237 236 235 234 234 233 232 232 230 230 230 229 229 228 227 226 226 225 225 226 226 226 227 228 229 230 231 233 236 241 247 253 260 266 269 270 274 275 273 270 267 263 258 256 255 258 260 262 264 265 266 267 266 264
305 297 289 280 273 267 264 262 260 260 259 257 255 252 251 248 246 244 243 243 243 242 241 242 243 243 243 243 243 242 240 239 237 236 235 235 234 233 232 231 230 230 230 230 230 229 228 227 226 225 226 226 226 226 226 225 225 227 230 233 238 242 248 255 260 262 266 268 269 267 263 260 258 254 253 254 256 258 260 261 262 262 262 260 258
320 301 291 286 281 274 270 268 267 266 263 261 259 257 254 252 250 247 245 245 244 243 242 242 242 243 243 243 243 242 241 240 238 237 236 236 235 234 233 231 230 230 231 232 232 232 230 228 227 226 226 226 226 225 224 222 221 223 225 228 234 240 244 250 254 257 261 264 262 260 257 255 253 252 251 252 254 257 258 259 260 260 259 257 255
350 324 303 291 284 279 276 275 274 271 269 267 266 264 262 259 258 256 253 251 250 248 247 246 245 245 245 244 243 243 242 241 239 237 237 236 235 235 234 233 232 232 232 232 232 233 231 229 228 226 226 226 226 226 224 220 218 221 225 228 231 236 242 246 250 254 255 256 256 254 253 251 250 249 249 250 252 254 256 257 259 260 260 258 256
12 358 339 315 293 282 280 280 280 279 278 274 271 270 268 265 263 261 259 257 256 255 253 252 251 250 249 248 246 244 243 241 240 238 237 237 237 236 236 235 234 233 233 232 232 232 231 230 229 227 226 225 225 226 225 223 220 219 221 226 232 233 240 244 245 250 251 249 249 249 248 246 244 243 244 248 250 253 255 256 259 261 261 260 258
26 18 7 353 332 306 288 280 281 284 284 282 280 277 272 270 267 264 263 261 259 259 257 255 254 253 251 250 248 247 245 243 241 239 238 238 238 238 237 236 235 235 235 234 233 233 231 230 229 228 227 226 226 226 225 224 222 219 215 216 224 224 232 244 244 245 245 244 245 245 244 241 238 238 241 246 252 255 255 256 260 262 261 259 257
35 29 22 16 6 349 321 297 287 285 287 288 286 282 277 274 270 265 262 260 258 257 256 255 253 253 251 250 249 247 246 244 243 241 239 238 239 239 239 238 237 236 236 236 235 235 234 232 230 229 229 228 229 229 227 225 224 223 219 215 215 214 224 239 239 238 241 241 242 243 241 239 238 241 246 252 257 257 253 255 260 262 261 259 255
37 34 31 29 25 17 3 339 317 304 297 293 289 286 282 277 272 268 264 262 262 261 261 260 260 259 257 255 254 251 249 247 245 244 241 240 239 239 240 239 238 237 237 237 236 236 235 234 233 232 231 230 230 230 229 228 225 225 225 225 228 227 229 231 223 226 237 238 241 242 240 240 241 245 252 258 261 257 251 254 259 260 259 257 253
35 33 32 32 32 30 25 16 359 341 324 310 301 294 288 283 279 276 273 270 269 269 269 270 270 269 266 263 261 258 255 251 248 246 243 241 239 239 240 240 240 239 238 238 238 237 237 236 236 235 234 232 230 230 231 230 227 226 228 230 233 235 236 235 226 225 231 235 240 241 241 243 244 248 252 256 258 254 251 254 258 256 254 251 249
32 31 29 29 30 30 29 27 23 14 358 337 321 309 299 292 287 283 278 275 273 272 273 273 272 272 270 267 265 262 259 255 251 248 245 243 241 240 240 240 240 239 239 239 240 240 239 238 236 235 235 233 232 232 233 232 230 230 230 230 233 235 237 239 239 239 233 235 242 241 241 244 245 246 247 250 252 250 250 254 255 253 249 245 241
30 31 29 26 26 26 27 27 27 26 22 11 353 336 320 306 297 290 284 281 279 275 274 274 273 272 271 270 267 265 263 260 256 253 250 246 243 241 240 240 240 240 240 240 241 241 241 239 237 235 234 234 234 234 233 234 234 234 234 232 234 235 235 238 241 242 237 234 242 244 243 244 243 243 243 245 247 247 249 252 252 249 244 239 234
31 30 29 27 25 24 23 22 23 24 27 28 22 10 351 329 313 301 294 290 285 280 278 277 275 274 274 273 271 269 268 266 262 259 255 251 246 243 241 240 240 240 240 240 241 242 242 241 240 238 237 236 236 235 234 236 236 236 237 237 236 235 234 234 235 237 238 236 237 244 249 247 245 244 241 242 244 246 248 249 249 246 240 235 229
31 28 27 27 26 25 24 21 19 18 19 24 27 28 18 356 333 316 305 296 288 285 283 280 278 278 278 277 276 275 273 271 268 263 259 254 250 246 243 241 241 241 240 240 241 242 243 243 242 240 239 238 238 237 236 237 236 236 237 237 238 238 237 237 238 239 240 239 238 243 249 249 247 246 243 240 241 243 245 245 246 243 237 232 227